Flag for Portugal Weather past 2 weeks in Loures, Portugal

Now
50 °F

Clear.


Feels Like: 47 °F
Forecast: N/A
Wind: 8 mph from North

Location: Lisbon Portela Airport

Current Time: Dec 20, 2014 at 10:44:06 PM

Latest Report: Dec 20, 2014 at 10:00 PM


Visibility: 10 mi

Pressure: 30.48 "Hg

Humidity: 88%

Dew point: 46 °F

Location of LouresLocation

Historic Weather in Loures — Graph

°F

Loures temperature yesterday

Maximum temperature yesterday: 54 °F (at 4:00 PM)
Minimum temperature yesterday: 39 °F (at 8:30 AM)
Average temperature yesterday: 47 °F

Past Weeks' High & Low Weather Summary

 TemperatureHumidityPressure
High61 °F (Dec 16, 12:00 PM)100% (Dec 11, 7:30 AM)30.54 "Hg (Dec 11, 7:30 AM)
Low37 °F (Dec 20, 6:30 AM)51% (Dec 6, 1:00 PM)29.65 "Hg (Dec 13, 3:30 PM)
Average51 °F83%30.29 "Hg
* Reported Dec 5 9:00 PM — Dec 20 9:30 PM, Loures, Weather by CustomWeather, © 2014

Note: Actual official high and low records may vary slightly from our data, if they occured in-between our weather recording intervals... More about our weather records

Advertising

Loures weather history for previous 24 hours

 ConditionsComfort  
Time TempWeatherWind HumidityBarometerVisibility
9:30 PM
Dec 20
50 °FClear.9 mph88%30.48 "Hg10 mi
9:00 PM50 °FClear.9 mph88%30.48 "Hg10 mi
8:30 PM48 °FClear.6 mph94%30.48 "Hg10 mi
8:00 PM48 °FPassing clouds.3 mph94%30.48 "HgN/A
7:30 PM48 °FClear.6 mph94%30.48 "Hg10 mi
7:00 PM48 °FClear.5 mph94%30.48 "Hg10 mi
6:30 PM45 °FClear.2 mph87%30.48 "Hg10 mi
6:00 PM46 °FClear.2 mph87%30.48 "Hg10 mi
5:00 PM48 °FSunny.5 mph82%30.45 "Hg10 mi
4:30 PM50 °FSunny.5 mph82%30.48 "Hg10 mi
4:00 PM50 °FPassing clouds.6 mph76%30.45 "HgN/A
3:30 PM50 °FPassing clouds.5 mph76%30.48 "HgN/A
3:00 PM48 °FPassing clouds.7 mph82%30.48 "HgN/A
2:30 PM48 °FPassing clouds.6 mph82%30.48 "HgN/A
2:00 PM46 °FPassing clouds.7 mph87%30.48 "HgN/A
1:30 PM45 °FPassing clouds.7 mph93%30.48 "Hg5 mi
1:00 PM43 °FSleet. Fog.7 mph100%30.51 "Hg4 mi
12:00 PM39 °FFog.8 mph100%30.54 "Hg3 mi
11:00 AM37 °FSleet. Cloudy.8 mph100%30.54 "Hg1 mi
10:30 AM37 °FFog.9 mph100%30.54 "Hg0 mi
10:00 AM37 °FFog.10 mph100%30.54 "Hg0 mi
9:30 AM37 °FFog.8 mph100%30.54 "Hg0 mi
9:00 AM37 °FFog.12 mph100%30.51 "Hg0 mi
8:30 AM37 °FFog.7 mph100%30.51 "Hg0 mi
8:00 AM37 °FFog.6 mph100%30.51 "Hg0 mi
7:30 AM37 °FFog.6 mph100%30.51 "Hg0 mi
7:00 AM37 °FFog.6 mph100%30.51 "Hg0 mi
6:30 AM37 °FFog.6 mph100%30.48 "Hg0 mi
6:00 AM39 °FFog.7 mph100%30.48 "Hg0 mi
5:30 AM39 °FFog.6 mph100%30.48 "Hg0 mi
5:00 AM39 °FFog.5 mph100%30.48 "Hg0 mi
4:30 AM39 °FFog.5 mph100%30.48 "Hg0 mi
4:00 AM39 °FSleet. Overcast.3 mph100%30.48 "Hg1 mi
3:30 AM41 °FLight fog.2 mph100%30.48 "HgN/A
3:00 AM43 °FPassing clouds.3 mph100%30.48 "HgN/A
2:30 AM45 °FPassing clouds.3 mph87%30.48 "HgN/A
2:00 AM45 °FClear.6 mph93%30.48 "Hg10 mi
1:30 AM45 °FClear.5 mph93%30.48 "Hg10 mi
1:00 AM45 °FClear.6 mph93%30.48 "Hg10 mi
12:30 AM48 °FPassing clouds.5 mph87%30.51 "HgN/A
12:00 AM48 °FClear.8 mph87%30.51 "Hg10 mi
11:30 PM
Dec 19
48 °FClear.7 mph87%30.51 "Hg10 mi
11:00 PM48 °FClear.8 mph87%30.51 "Hg10 mi
10:30 PM48 °FPassing clouds.6 mph87%30.51 "HgN/A
10:00 PM48 °FPassing clouds.8 mph87%30.51 "HgN/A
Weather by CustomWeather, © 2014

See weather overviewHow to use our weather pages